Location: Unspecified
(52.4292°N, 19.3359°E)
Time: 21:26:51
(UTC+02:00)

A-11 Canister half - Pass Details

Date: 25 May 2024
Orbit: 1524 x 1683 km, 47.3° (Epoch: 19 June)

Event Time Altitude Azimuth Distance (km) Brightness Sun altitude
Rises 23:44:46 0° 261° (W) 4,704 11.6 -15.4°
Reaches altitude 10° 23:47:48 10° 258° (WSW) 3,737 11.0 -15.5°
Maximum altitude 23:57:08 66° 180° (S) 1,710 9.0 -15.8°
Drops below altitude 10° 00:06:48 10° 101° (E) 3,859 10.9 -16.1°
Sets 00:09:59 0° 99° (E) 4,866 11.5 -16.1°
